logo
Search for airport 
image banner adimage banner adimage banner ad
image banner ad

EHBID - Biddinghuizen

Located in , Netherlands

ICAO - , IATA -

Data provided by Airmate  

General information

Coordinates: N52°25'45" E5°40'27"
Elevation is -13 feet MSL.
 
View others Airports in Flevoland

Operational data

Special qualification required
Current time UTC:
Current local time:
Weather at : EHLE - Lelystad/Lelystad ( 11 km )
METAR: EHLE 161925Z AUTO 21006KT 180V240 9999 FEW028 SCT040 BKN045 17/15 Q1011 NOSIG
TAF: TAF EHLE 161718Z 1618/1724 22013KT 9999 SCT022 PROB40 TEMPO 1618/1708 7000 -RADZ -SHRA SCT012 BKN018 FEW020TCU BECMG 1619/1622 25012KT PROB30 1700/1705 SCT008 BKN012 BECMG 1710/1713 29008KT BECMG 1718/1721 VRB02KT
View NOTAMs / SUP AIP / TFR affecting this airport [VIEW]
Communications frequencies: [VIEW]

Runways:

RWY identifierQFULength (ft)Width (ft)SurfaceLDA (ft)
0538°3937164GRASS
23218°3937164GRASS

Airport contact information

Address: Netherlands

Satellite view of EHBID